Sierra Vista, AZ

6:45 AM MST on November 23, 2017 (GMT -0700)
Sierra Vista Municipal-Libby Army Air Field

Weather History for KFHU - June, 2013

Change the Weather History Date:

Friday, June 21, 2013

  Actual Average Record
Temperature  
Mean Temperature 82 °F -  
Max Temperature 96 °F 89 °F 103 °F (1990)
Min Temperature 68 °F 68 °F 57 °F (1991)
Cooling Degree Days 17    
Growing Degree Days 32 (Base 50)    
Moisture  
Dew Point 28 °F    
Average Humidity 16    
Maximum Humidity 31    
Minimum Humidity 4    
Precipitation  
Precipitation 0.00 in - - ()
Sea Level Pressure  
Sea Level Pressure 29.84 in    
Wind  
Wind Speed 7 mph (SW)    
Max Wind Speed 23 mph    
Max Gust Speed 33 mph    
Visibility 10 miles    
Events      
Averages and records for this station are not official NWS values.
T = Trace of Precipitation, MM = Missing Value Source: NWS Daily Summary

Daily Weather History Graph

Daily Weather History Graph

Search for Another Location

Airport or City:

Trip Planner

Search our weather history database for the weather conditions in past years. The results will help you decide how hot, cold, wet, or windy it might be!

Date:

Astronomy

Jun. 21, 2013 Rise Set
Actual Time 5:16 AM MST 7:29 PM MST
Civil Twilight 4:48 AM MST 7:57 PM MST
Nautical Twilight 4:14 AM MST 8:32 PM MST
Astronomical Twilight 3:37 AM MST 9:09 PM MST
Moon 5:47 PM MST (6/21) 3:30 AM MST (6/21)
Length of Visible Light 15h 08m
Length of Day
14h 12m
Waxing Gibbous, 96% of the Moon is Illuminated
Jun 21
Waxing Gibbous
Jun 23
Full
Jun 29
Last Quarter
Jul 8
New
Jul 15
First Quarter

Hourly Weather History & Observations

Time (MST) Temp. Dew Point Humidity Pressure Visibility Wind Dir Wind Speed Gust Speed Precip Events Conditions
12:55 AM 78.8 °F 37.4 °F 23% 29.82 in 10.0 mi SW 6.9 mph - N/A   Clear
1:55 AM 75.2 °F 35.6 °F 24% 29.82 in 10.0 mi Calm Calm - N/A   Clear
2:55 AM 69.8 °F 35.6 °F 28% 29.83 in 10.0 mi East 3.5 mph - N/A   Partly Cloudy
3:55 AM 68.0 °F 35.6 °F 30% 29.84 in 10.0 mi SSW 3.5 mph - N/A   Partly Cloudy
4:55 AM 69.8 °F 37.4 °F 31% 29.85 in 10.0 mi Calm Calm - N/A   Partly Cloudy
5:55 AM 69.8 °F 37.4 °F 31% 29.87 in - South 5.8 mph - N/A   Partly Cloudy
6:55 AM 73.4 °F 37.4 °F 27% 29.87 in 10.0 mi Variable 3.5 mph - N/A   Partly Cloudy
7:55 AM 77.0 °F 37.4 °F 24% 29.88 in 10.0 mi Variable 2.3 mph - N/A   Partly Cloudy
8:55 AM 82.4 °F 35.6 °F 19% 29.89 in 10.0 mi Variable 4.6 mph - N/A   Partly Cloudy
9:55 AM 86.0 °F 30.2 °F 13% 29.89 in 10.0 mi Variable 4.6 mph - N/A   Scattered Clouds
10:55 AM 89.6 °F 23.0 °F 9% 29.88 in 10.0 mi Variable 3.5 mph - N/A   Scattered Clouds
11:55 AM 93.2 °F 6.8 °F 4% 29.85 in 10.0 mi SW 16.1 mph 24.2 mph N/A   Scattered Clouds
12:55 PM 96.8 °F 8.6 °F 4% 29.84 in 10.0 mi WSW 23.0 mph 29.9 mph N/A   Mostly Cloudy
1:55 PM 96.8 °F 17.6 °F 6% 29.83 in 10.0 mi SSW 20.7 mph 31.1 mph N/A   Mostly Cloudy
2:55 PM 93.2 °F 19.4 °F 7% 29.84 in 10.0 mi WSW 17.3 mph 27.6 mph N/A   Mostly Cloudy
3:55 PM 93.2 °F 21.2 °F 7% 29.83 in 10.0 mi WSW 19.6 mph 33.4 mph N/A   Mostly Cloudy
4:55 PM 93.2 °F 24.8 °F 9% 29.82 in 10.0 mi WSW 19.6 mph 25.3 mph N/A   Mostly Cloudy
5:55 PM 91.4 °F 26.6 °F 10% 29.81 in 10.0 mi SSW 16.1 mph 23.0 mph N/A   Mostly Cloudy
6:55 PM 89.6 °F 26.6 °F 10% 29.81 in 10.0 mi WSW 12.7 mph 21.9 mph N/A   Mostly Cloudy
7:55 PM 84.2 °F 26.6 °F 12% 29.81 in 10.0 mi West 11.5 mph - N/A   Mostly Cloudy
8:55 PM 82.4 °F 28.4 °F 14% 29.82 in 10.0 mi SSW 5.8 mph - N/A   Mostly Cloudy
9:55 PM 78.8 °F 28.4 °F 16% 29.83 in 10.0 mi SW 4.6 mph - N/A   Mostly Cloudy
10:55 PM 75.2 °F 28.4 °F 18% 29.83 in 10.0 mi South 5.8 mph - N/A   Mostly Cloudy
11:56 PM 79.0 °F 30.9 °F 17% 29.81 in 10.0 mi Calm Calm - N/A   Clear